Flag for Poland Weather past 2 weeks in Gliwice, Poland

Now
61 °F

Clear.


Feels Like: 61 °F
Forecast: 61 / 92 °F
Wind: 5 mph from Southeast

Location: Katowice Airport

Current Time: Jul 5, 2015 at 6:48:31 AM

Latest Report: Jul 5, 2015 at 5:30 AM


Visibility: 10 mi

Pressure: 30.12 "Hg

Humidity: 88%

Dew point: 57 °F

Location of GliwiceLocation

Historic Weather in Gliwice — Graph

°F

Gliwice temperature yesterday

Maximum temperature yesterday: 88 °F (at 2:30 PM)
Minimum temperature yesterday: 54 °F (at 4:30 AM)
Average temperature yesterday: 74 °F

Past Weeks' High & Low Weather Summary

 TemperatureHumidityPressure
High88 °F (Jul 4, 2:30 PM)100% (Jun 20, 10:00 PM)30.39 "Hg (Jun 20, 10:00 PM)
Low43 °F (Jun 20, 5:00 AM)29% (Jul 4, 1:30 PM)29.74 "Hg (Jun 23, 3:30 AM)
Average61 °F73%30.10 "Hg
* Reported Jun 20 5:00 AM — Jul 5 5:00 AM, Gliwice, Weather by CustomWeather, © 2015

Note: Actual official high and low records may vary slightly from our data, if they occured in-between our weather recording intervals... More about our weather records

Advertising

Gliwice weather history for previous 24 hours

 ConditionsComfort  
Time TempWeatherWind HumidityBarometerVisibility
5:00 AM
Sun, Jul 5
61 °FClear.3 mph88%30.12 "Hg10 mi
4:30 AM61 °FClear.5 mph88%30.12 "Hg10 mi
4:00 AM63 °FClear.5 mph83%30.12 "Hg10 mi
3:30 AM64 °FPassing clouds.3 mph73%30.12 "HgN/A
3:00 AM68 °FClear.5 mph69%30.12 "Hg10 mi
2:30 AM66 °FClear.5 mph73%30.12 "Hg10 mi
2:00 AM66 °FClear.5 mph73%30.12 "Hg10 mi
1:30 AM66 °FPassing clouds.3 mph73%30.12 "HgN/A
1:00 AM66 °FClear.5 mph73%30.12 "Hg10 mi
12:30 AM68 °FClear.3 mph69%30.12 "Hg10 mi
12:00 AM72 °FClear.6 mph61%30.15 "Hg10 mi
11:30 PM
Sat, Jul 4
68 °FPassing clouds.3 mph69%30.15 "HgN/A
11:00 PM66 °FClear.5 mph78%30.15 "Hg10 mi
10:30 PM72 °FClear.2 mph61%30.15 "Hg10 mi
10:00 PM75 °FPassing clouds.3 mph54%30.15 "HgN/A
9:30 PM73 °FSunny.9 mph61%30.15 "Hg10 mi
9:00 PM77 °FSunny.2 mph51%30.15 "Hg10 mi
8:30 PM82 °FSunny.5 mph42%30.12 "Hg10 mi
8:00 PM84 °FSunny.6 mph37%30.15 "Hg10 mi
7:30 PM86 °FSunny.7 mph33%30.15 "Hg10 mi
7:00 PM88 °FSunny.5 mph31%30.15 "Hg10 mi
6:30 PM88 °FSunny.5 mph31%30.15 "Hg10 mi
6:00 PM88 °FPassing clouds.9 mph33%30.15 "HgN/A
5:30 PM88 °FPassing clouds.5 mph29%30.15 "HgN/A
5:00 PM88 °FSunny.6 mph31%30.18 "Hg10 mi
4:30 PM88 °FPassing clouds.7 mph31%30.18 "HgN/A
4:00 PM88 °FPassing clouds.5 mph29%30.18 "HgN/A
3:30 PM88 °FSunny.6 mph29%30.18 "Hg10 mi
3:00 PM88 °FPassing clouds.8 mph29%30.21 "HgN/A
2:30 PM88 °FPassing clouds.12 mph31%30.21 "HgN/A
2:00 PM86 °FSunny.7 mph33%30.21 "Hg10 mi
1:30 PM86 °FSunny.5 mph29%30.21 "Hg10 mi
1:00 PM84 °FSunny.6 mph35%30.21 "Hg10 mi
12:30 PM84 °FPassing clouds.7 mph35%30.24 "HgN/A
12:00 PM84 °FPassing clouds.7 mph35%30.24 "HgN/A
11:30 AM82 °FPassing clouds.8 mph42%30.24 "HgN/A
11:00 AM82 °FSunny.7 mph42%30.24 "Hg10 mi
10:30 AM81 °FSunny.6 mph45%30.27 "Hg10 mi
10:00 AM79 °FPassing clouds.6 mph48%30.27 "HgN/A
9:30 AM79 °FPassing clouds.7 mph48%30.27 "HgN/A
9:00 AM75 °FPassing clouds.6 mph54%30.27 "HgN/A
8:30 AM73 °FPassing clouds.6 mph57%30.27 "HgN/A
8:00 AM72 °FPassing clouds.3 mph57%30.27 "HgN/A
7:30 AM70 °FSunny.5 mph57%30.27 "Hg10 mi
7:00 AM66 °FPassing clouds.3 mph64%30.30 "HgN/A
6:30 AM63 °FSunny.2 mph73%30.27 "Hg10 mi
6:00 AM57 °FSunny.3 mph82%30.30 "Hg10 mi
Weather by CustomWeather, © 2015

See weather overviewHow to use our weather pages